Wise, VA

7:47 AM EST on December 07, 2016 (GMT -0500)
Lonesome Pine

Weather History for KLNP - October, 2010

Change the Weather History Date:

Friday, October 8, 2010

  Actual Average Record
Temperature  
Mean Temperature 62 °F -  
Max Temperature 75 °F 65 °F 87 °F (2007)
Min Temperature 48 °F 46 °F 35 °F (2001)
Degree Days  
Heating Degree Days 4    
Growing Degree Days 12 (Base 50)    
Moisture  
Dew Point 42 °F    
Average Humidity 54    
Maximum Humidity 82    
Minimum Humidity 25    
Precipitation  
Precipitation 0.00 in - - ()
Sea Level Pressure  
Sea Level Pressure 30.16 in    
Wind  
Wind Speed 1 mph (WNW)    
Max Wind Speed 8 mph    
Max Gust Speed -    
Visibility 10 miles    
Events      
Averages and records for this station are not official NWS values.
T = Trace of Precipitation, MM = Missing Value Source: NWS Daily Summary

Daily Weather History Graph

Daily Weather History Graph

Search for Another Location

Airport or City:

Trip Planner

Search our weather history database for the weather conditions in past years. The results will help you decide how hot, cold, wet, or windy it might be!

Date:

Astronomy

Oct. 08, 2010 Rise Set
Actual Time 7:31 AM EDT 7:03 PM EDT
Civil Twilight 7:05 AM EDT 7:29 PM EDT
Nautical Twilight 6:35 AM EDT 7:59 PM EDT
Astronomical Twilight 6:05 AM EDT 8:29 PM EDT
Moon 8:32 AM EDT (10/8) 7:20 PM EDT (10/8)
Length of Visible Light 12h 23m
Length of Day
11h 31m
New Moon, 1% of the Moon is Illuminated
Oct 8
New Moon
Oct 14
First Quarter
Oct 22
Full
Oct 30
Last Quarter
Nov 6
New

Hourly Weather History & Observations

Time (EDT) Temp. Dew Point Humidity Pressure Visibility Wind Dir Wind Speed Gust Speed Precip Events Conditions
12:00 AM 53.6 °F 46.4 °F 77% 30.15 in 10.0 mi Calm Calm - N/A   Clear
12:20 AM 53.6 °F 46.4 °F 77% 30.15 in 10.0 mi Calm Calm - N/A   Clear
12:40 AM 55.4 °F 46.4 °F 72% 30.15 in 10.0 mi Calm Calm - N/A   Clear
1:00 AM 51.8 °F 46.4 °F 82% 30.15 in 10.0 mi Calm Calm - N/A   Clear
1:20 AM 55.4 °F 46.4 °F 72% 30.15 in 10.0 mi Calm Calm - N/A   Clear
1:40 AM 55.4 °F 46.4 °F 72% 30.15 in 10.0 mi Calm Calm - N/A   Clear
2:00 AM 51.8 °F 44.6 °F 76% 30.15 in 10.0 mi Calm Calm - N/A   Clear
2:20 AM 50.0 °F 44.6 °F 82% 30.16 in 10.0 mi Calm Calm - N/A   Clear
2:40 AM 51.8 °F 44.6 °F 76% 30.16 in 10.0 mi Calm Calm - N/A   Clear
3:00 AM 55.4 °F 44.6 °F 67% 30.16 in 10.0 mi Calm Calm - N/A   Clear
3:20 AM 55.4 °F 42.8 °F 63% 30.16 in 10.0 mi NNW 3.5 mph - N/A   Clear
3:40 AM 50.0 °F 41.0 °F 71% 30.15 in 10.0 mi Calm Calm - N/A   Clear
4:00 AM 55.4 °F 42.8 °F 63% 30.15 in 10.0 mi Calm Calm - N/A   Clear
4:20 AM 48.2 °F 42.8 °F 82% 30.15 in 10.0 mi Calm Calm - N/A   Clear
4:40 AM 50.0 °F 42.8 °F 76% 30.15 in 10.0 mi South 3.5 mph - N/A   Clear
5:00 AM 51.8 °F 42.8 °F 71% 30.15 in 10.0 mi Calm Calm - N/A   Clear
5:20 AM 51.8 °F 42.8 °F 71% 30.15 in 10.0 mi Calm Calm - N/A   Clear
5:40 AM 48.2 °F 42.8 °F 82% 30.16 in 10.0 mi Calm Calm - N/A   Clear
6:00 AM 51.8 °F 42.8 °F 71% 30.16 in 10.0 mi Calm Calm - N/A   Clear
6:20 AM 51.8 °F 42.8 °F 71% 30.16 in 10.0 mi Calm Calm - N/A   Clear
6:40 AM 51.8 °F 41.0 °F 67% 30.16 in 10.0 mi Calm Calm - N/A   Clear
7:00 AM 50.0 °F 41.0 °F 71% 30.16 in 10.0 mi Calm Calm - N/A   Clear
7:20 AM - - N/A% - - North - - N/A   Unknown
7:40 AM 48.2 °F 41.0 °F 76% 30.17 in 10.0 mi Calm Calm - N/A   Clear
8:00 AM 48.2 °F 41.0 °F 76% 30.17 in 10.0 mi SSW 3.5 mph - N/A   Clear
8:20 AM 48.2 °F 41.0 °F 76% 30.18 in 10.0 mi Calm Calm - N/A   Clear
8:40 AM 51.8 °F 41.0 °F 67% 30.18 in 10.0 mi Calm Calm - N/A   Clear
9:00 AM 55.4 °F 46.4 °F 72% 30.19 in 10.0 mi Calm Calm - N/A   Clear
9:20 AM 57.2 °F 46.4 °F 67% 30.19 in 10.0 mi Calm Calm - N/A   Clear
9:40 AM 59.0 °F 46.4 °F 63% 30.20 in 10.0 mi Calm Calm - N/A   Clear
10:00 AM 60.8 °F 44.6 °F 55% 30.20 in 10.0 mi Calm Calm - N/A   Clear
10:20 AM 64.4 °F 42.8 °F 45% 30.20 in 10.0 mi Calm Calm - N/A   Clear
10:40 AM 66.2 °F 39.2 °F 37% 30.20 in 10.0 mi Calm Calm - N/A   Clear
11:00 AM 66.2 °F 39.2 °F 37% 30.20 in 10.0 mi Calm Calm - N/A   Clear
11:20 AM 68.0 °F 41.0 °F 37% 30.20 in 10.0 mi WSW 3.5 mph - N/A   Clear
11:40 AM 68.0 °F 37.4 °F 33% 30.20 in 10.0 mi Calm Calm - N/A   Clear
12:00 PM 69.8 °F 37.4 °F 31% 30.20 in 10.0 mi Calm Calm - N/A   Clear
12:20 PM 71.6 °F 37.4 °F 29% 30.19 in 10.0 mi Calm Calm - N/A   Clear
12:40 PM 71.6 °F 39.2 °F 31% 30.19 in 10.0 mi Calm Calm - N/A   Clear
1:00 PM 71.6 °F 37.4 °F 29% 30.19 in 10.0 mi Calm Calm - N/A   Clear
1:20 PM 71.6 °F 37.4 °F 29% 30.18 in 10.0 mi Calm Calm - N/A   Clear
1:40 PM 73.4 °F 39.2 °F 29% 30.17 in 10.0 mi WNW 3.5 mph - N/A   Clear
2:00 PM 73.4 °F 39.2 °F 29% 30.17 in 10.0 mi Calm Calm - N/A   Clear
2:20 PM 73.4 °F 37.4 °F 27% 30.16 in 10.0 mi Calm Calm - N/A   Clear
2:40 PM 73.4 °F 37.4 °F 27% 30.15 in 10.0 mi WSW 3.5 mph - N/A   Clear
3:00 PM 75.2 °F 37.4 °F 25% 30.14 in 10.0 mi NNW 5.8 mph - N/A   Clear
3:20 PM 75.2 °F 39.2 °F 27% 30.14 in 10.0 mi Calm Calm - N/A   Clear
3:40 PM 75.2 °F 39.2 °F 27% 30.14 in 10.0 mi NW 8.1 mph - N/A   Clear
4:00 PM 75.2 °F 39.2 °F 27% 30.14 in 10.0 mi NW 5.8 mph - N/A   Clear
4:20 PM 75.2 °F 39.2 °F 27% 30.13 in 10.0 mi WNW 4.6 mph - N/A   Clear
4:40 PM 75.2 °F 39.2 °F 27% 30.13 in 10.0 mi NW 4.6 mph - N/A   Clear
5:00 PM 73.4 °F 37.4 °F 27% 30.13 in 10.0 mi NNW 5.8 mph - N/A   Clear
5:20 PM 73.4 °F 37.4 °F 27% 30.13 in 10.0 mi NNW 6.9 mph - N/A   Clear
5:40 PM 73.4 °F 39.2 °F 29% 30.13 in 10.0 mi NW 4.6 mph - N/A   Clear
6:00 PM 71.6 °F 37.4 °F 29% 30.13 in 10.0 mi NW 3.5 mph - N/A   Clear
6:20 PM 71.6 °F 37.4 °F 29% 30.13 in 10.0 mi NW 3.5 mph - N/A   Clear
6:40 PM 69.8 °F 37.4 °F 31% 30.13 in 10.0 mi NNW 3.5 mph - N/A   Clear
7:00 PM 68.0 °F 37.4 °F 33% 30.14 in 10.0 mi Calm Calm - N/A   Clear
7:20 PM 66.2 °F 37.4 °F 35% 30.14 in - Calm Calm - N/A   Unknown
7:40 PM 64.4 °F 37.4 °F 37% 30.14 in 10.0 mi Calm Calm - N/A   Clear
8:00 PM 60.8 °F 39.2 °F 45% 30.14 in 10.0 mi Calm Calm - N/A   Clear
8:20 PM 60.8 °F 39.2 °F 45% 30.14 in 10.0 mi Calm Calm - N/A   Clear
8:40 PM 59.0 °F 39.2 °F 48% 30.15 in 10.0 mi Calm Calm - N/A   Clear
9:00 PM 59.0 °F 39.2 °F 48% 30.15 in 10.0 mi Calm Calm - N/A   Clear
9:20 PM 60.8 °F 41.0 °F 48% 30.15 in 10.0 mi Calm Calm - N/A   Clear
9:40 PM 59.0 °F 41.0 °F 51% 30.15 in 10.0 mi Calm Calm - N/A   Clear
10:00 PM 59.0 °F 41.0 °F 51% 30.15 in 10.0 mi Calm Calm - N/A   Clear
10:20 PM 59.0 °F 41.0 °F 51% 30.15 in 10.0 mi Calm Calm - N/A   Clear
10:40 PM 60.8 °F 41.0 °F 48% 30.16 in 10.0 mi Calm Calm - N/A   Clear
11:00 PM 57.2 °F 42.8 °F 59% 30.16 in 10.0 mi Calm Calm - N/A   Clear
11:20 PM 57.2 °F 41.0 °F 55% 30.15 in 10.0 mi Calm Calm - N/A   Clear
11:40 PM 55.4 °F 42.8 °F 63% 30.16 in 10.0 mi Calm Calm - N/A   Clear